Tracking 19485 objects as of 21-Jan-2019
HD Live streaming from Space Station
objects crossing your sky now

COSMOS 2428

Track COSMOS 2428 now!
10-day predictions
COSMOS 2428 is classified as:


NORAD ID: 31792
Int'l Code: 2007-029A
Perigee: 852.7 km
Apogee: 862.9 km
Inclination: 71.0 °
Period: 101.9 minutes
Semi major axis: 7228 km
RCS: 6.5075 m2 (large)
Launch date: June 29, 2007
Source: Commonwealth of Independent States (former USSR) (CIS)
Launch site: TYURATAM MISSILE AND SPACE COMPLEX (TTMTR)

Cosmos-2428 is a defense satellite.
aabbcc
Your satellite tracking list
Your tracking list is empty




NASA's NSSDC Master Catalog

Two Line Element Set (TLE):
1 31792U 07029A   19020.90591564 -.00000251 +00000-0 -10981-3 0  9993
2 31792 070.9616 270.3711 0007038 124.3067 235.8721 14.12559316596268
Source of the keplerian elements: AFSPC